2023/03/08 00:00:00,97.1, 2.6
2023/03/08 00:10:00,97.1, 2.5
2023/03/08 00:20:00,97.2, 2.4
2023/03/08 00:30:00,97.1, 2.8
2023/03/08 00:40:00,97.2, 2.5
2023/03/08 00:50:00,97.2, 2.8
2023/03/08 01:00:00,97.2, 2.4
2023/03/08 01:10:00,97.2, 2.5
2023/03/08 01:20:00,97.2, 2.4
2023/03/08 01:30:00,97.2, 2.6
2023/03/08 01:40:00,97.2, 2.5
2023/03/08 01:50:00,97.2, 2.3
2023/03/08 02:00:00,97.2, 2.4
2023/03/08 02:10:00,97.2, 2.4
2023/03/08 02:20:00,97.2, 2.5
2023/03/08 02:30:00,97.2, 2.7
2023/03/08 02:40:00,97.2, 2.6
2023/03/08 02:50:00,97.2, 2.8
2023/03/08 03:00:00,97.2, 2.9
2023/03/08 03:10:00,97.2, 3.0
2023/03/08 03:20:00,97.2, 2.6
2023/03/08 03:30:00,97.2, 2.8
2023/03/08 03:40:00,97.2, 2.4
2023/03/08 03:50:00,97.2, 2.6
2023/03/08 04:00:00,97.2, 2.5
2023/03/08 04:10:00,97.2, 2.6
2023/03/08 04:20:00,97.2, 2.6
2023/03/08 04:30:00,97.2, 2.4
2023/03/08 04:40:00,97.2, 2.6
2023/03/08 04:50:00,97.2, 2.9
2023/03/08 05:00:00,97.2, 2.7
2023/03/08 05:10:00,97.2, 2.5
2023/03/08 05:20:00,97.2, 2.3
2023/03/08 05:30:00,97.2, 2.4
2023/03/08 05:40:00,97.2, 2.1
2023/03/08 05:50:00,97.2, 2.3
2023/03/08 06:00:00,97.2, 2.2
2023/03/08 06:10:00,97.2, 2.3
2023/03/08 06:20:00,97.2, 2.5
2023/03/08 06:30:00,97.3, 2.6
2023/03/08 06:40:00,97.3, 2.8
2023/03/08 06:50:00,97.4, 3.1
2023/03/08 07:00:00,97.4, 2.9
2023/03/08 07:10:00,97.4, 3.2
2023/03/08 07:20:00,97.5, 3.1
2023/03/08 07:30:00,97.5, 3.1
2023/03/08 07:40:00,97.4, 3.7
2023/03/08 07:50:00,97.6, 3.5
2023/03/08 08:00:00,97.4, 4.2
2023/03/08 08:10:00,97.5, 4.6
2023/03/08 08:20:00,97.5, 4.3
2023/03/08 08:30:00,97.4, 4.4
2023/03/08 08:40:00,97.4, 4.9
2023/03/08 08:50:00,97.4, 5.0
2023/03/08 09:00:00,97.4, 4.9
2023/03/08 09:10:00,97.5, 5.0
2023/03/08 09:20:00,97.3, 5.0
2023/03/08 09:30:00,97.3, 5.1
2023/03/08 09:40:00,97.2, 5.6
2023/03/08 09:50:00,96.8, 7.0
2023/03/08 10:00:00,96.5, 7.5
2023/03/08 10:10:00,96.2, 7.4
2023/03/08 10:20:00,96.3, 6.7
2023/03/08 10:30:00,96.1, 7.7
2023/03/08 10:40:00,96.2, 6.7
2023/03/08 10:50:00,96.3, 6.5
2023/03/08 11:00:00,96.2, 7.1
2023/03/08 11:10:00,95.9, 7.4
2023/03/08 11:20:00,95.3, 8.1
2023/03/08 11:30:00,95.6, 8.5
2023/03/08 11:40:00,96.1, 8.6
2023/03/08 11:50:00,96.2, 8.7
2023/03/08 12:00:00,96.1, 8.8
2023/03/08 12:10:00,96.2, 8.8
2023/03/08 12:20:00,96.1, 9.0
2023/03/08 12:30:00,96.0, 9.1
2023/03/08 12:40:00,96.1, 8.7
2023/03/08 12:50:00,96.2, 8.5
2023/03/08 13:00:00,96.2, 8.9
2023/03/08 13:10:00,96.1, 8.5
2023/03/08 13:20:00,96.2, 8.5
2023/03/08 13:30:00,96.1, 8.7
2023/03/08 13:40:00,95.7, 8.9
2023/03/08 13:50:00,95.6, 9.0
2023/03/08 14:00:00,95.6, 8.9
2023/03/08 14:10:00,95.5, 8.6
2023/03/08 14:20:00,95.6, 8.5
2023/03/08 14:30:00,95.6, 8.3
2023/03/08 14:40:00,95.7, 8.3
2023/03/08 14:50:00,95.6, 7.2
2023/03/08 15:00:00,95.8, 7.1
2023/03/08 15:10:00,95.8, 7.4
2023/03/08 15:20:00,95.7, 6.8
2023/03/08 15:30:00,95.8, 6.9
2023/03/08 15:40:00,95.6, 6.6
2023/03/08 15:50:00,95.5, 6.4
2023/03/08 16:00:00,95.3, 6.3
2023/03/08 16:10:00,95.1, 6.1
2023/03/08 16:20:00,95.0, 6.3
2023/03/08 16:30:00,94.8, 6.1
2023/03/08 16:40:00,94.8, 6.0
2023/03/08 16:50:00,94.8, 5.5
2023/03/08 17:00:00,94.8, 5.5
2023/03/08 17:10:00,94.9, 5.3
2023/03/08 17:20:00,94.9, 5.2
2023/03/08 17:30:00,94.8, 5.0
2023/03/08 17:40:00,94.7, 4.7
2023/03/08 17:50:00,94.8, 4.6
2023/03/08 18:00:00,94.9, 4.7
2023/03/08 18:10:00,94.6, 4.6
2023/03/08 18:20:00,94.6, 4.2
2023/03/08 18:30:00,94.5, 4.2
2023/03/08 18:40:00,94.3, 4.3
2023/03/08 18:50:00,94.4, 4.4
2023/03/08 19:00:00,94.4, 4.2
2023/03/08 19:10:00,94.4, 4.0
2023/03/08 19:20:00,94.3, 3.7
2023/03/08 19:30:00,94.4, 3.7
2023/03/08 19:40:00,94.4, 3.5
2023/03/08 19:50:00,94.6, 3.5
2023/03/08 20:00:00,94.8, 3.4
2023/03/08 20:10:00,94.7, 3.2
2023/03/08 20:20:00,94.8, 3.6
2023/03/08 20:30:00,95.0, 3.3
2023/03/08 20:40:00,95.0, 3.2
2023/03/08 20:50:00,94.9, 3.4
2023/03/08 21:00:00,94.4, 3.6
2023/03/08 21:10:00,94.3, 3.4
2023/03/08 21:20:00,94.2, 3.0
2023/03/08 21:30:00,94.2, 3.3
2023/03/08 21:40:00,94.0, 3.5
2023/03/08 21:50:00,94.0, 3.5
2023/03/08 22:00:00,93.8, 3.2
2023/03/08 22:10:00,93.7, 3.3
2023/03/08 22:20:00,93.7, 3.1
2023/03/08 22:30:00,93.7, 3.0
2023/03/08 22:40:00,93.7, 3.2
2023/03/08 22:50:00,93.7, 3.1
2023/03/08 23:00:00,93.8, 3.2
2023/03/08 23:10:00,93.9, 2.8
2023/03/08 23:20:00,94.2, 3.0
2023/03/08 23:30:00,94.3, 2.7
2023/03/08 23:40:00,94.3, 2.6
2023/03/08 23:50:00,94.3, 3.0
